| time (UTC) | temp C | wind direction | speed KPH | gust KPH | rain 1hr cm | rain 24hr cm | rain mn cm | humidity % | barometer mb |
| 20260506155224 | 14 | 0 | 0.0 | 4.8 | 0.00 | 0.00 | 0.00 | 75 | 1020.0 |
| 20260506153624 | 13 | 90 | 1.6 | 4.8 | 0.00 | 0.00 | 0.00 | 80 | 1020.0 |
| 20260506153224 | 13 | 90 | 1.6 | 4.8 | 0.00 | 0.00 | 0.00 | 79 | 1020.0 |
| 20260506152824 | 12 | 90 | 1.6 | 6.4 | 0.00 | 0.00 | 0.00 | 81 | 1020.0 |
| 20260506152024 | 12 | 90 | 1.6 | 4.8 | 0.00 | 0.00 | 0.00 | 83 | 1020.0 |
| 20260506151624 | 12 | 90 | 3.2 | 4.8 | 0.00 | 0.00 | 0.00 | 83 | 1020.0 |
| 20260506151224 | 12 | 0 | 0.0 | 0.0 | 0.00 | 0.00 | 0.00 | 84 | 1020.0 |
| 20260506150824 | 12 | 0 | 0.0 | 0.0 | 0.00 | 0.00 | 0.00 | 84 | 1020.1 |
| 20260506150024 | 11 | 0 | 0.0 | 4.8 | 0.00 | 0.00 | 0.00 | 86 | 1020.2 |
| 20260506145624 | 11 | 89 | 1.6 | 4.8 | 0.00 | 0.00 | 0.00 | 88 | 1020.1 |
| 20260506145224 | 11 | 89 | 1.6 | 6.4 | 0.00 | 0.00 | 0.00 | 90 | 1020.2 |
| 20260506144824 | 10 | 0 | 0.0 | 6.4 | 0.00 | 0.00 | 0.00 | 92 | 1020.2 |
| 20260506144424 | 10 | 89 | 1.6 | 6.4 | 0.00 | 0.00 | 0.00 | 93 | 1020.2 |
| 20260506143624 | 8 | 0 | 0.0 | 1.6 | 0.00 | 0.00 | 0.00 | 94 | 1020.2 |
| 20260506143107 | 8 | 89 | 1.6 | 4.8 | 0.00 | 0.00 | 0.00 | 93 | 1020.2 |
| 20260506142707 | 7 | 89 | 1.6 | 4.8 | 0.00 | 0.00 | 0.00 | 93 | 1020.1 |
| 20260506141934 | 7 | 89 | 3.2 | 6.4 | 0.00 | 0.00 | 0.00 | 93 | 1020.1 |
| 20260506141534 | 7 | 0 | 0.0 | 4.8 | 0.00 | 0.00 | 0.00 | 93 | 1020.0 |
| 20260506141134 | 7 | 0 | 0.0 | 4.8 | 0.00 | 0.00 | 0.00 | 93 | 1020.0 |
| 20260506140734 | 7 | 89 | 1.6 | 4.8 | 0.00 | 0.00 | 0.00 | 93 | 1020.0 |
| 20260506140334 | 6 | 89 | 1.6 | 4.8 | 0.00 | 0.00 | 0.00 | 93 | 1020.0 |
| 20260506135934 | 6 | 0 | 0.0 | 6.4 | 0.00 | 0.00 | 0.00 | 93 | 1020.0 |
| 20260506134829 | 6 | 89 | 1.6 | 8.0 | 0.00 | 0.00 | 0.00 | 93 | 1019.9 |
| 20260506134429 | 6 | 89 | 1.6 | 8.0 | 0.00 | 0.00 | 0.00 | 93 | 1019.9 |
| 20260506134029 | 6 | 88 | 3.2 | 8.0 | 0.00 | 0.00 | 0.00 | 93 | 1019.9 |
| 20260506133629 | 6 | 87 | 1.6 | 4.8 | 0.00 | 0.00 | 0.00 | 93 | 1019.9 |
| 20260506132829 | 6 | 87 | 1.6 | 6.4 | 0.00 | 0.00 | 0.00 | 93 | 1019.7 |
| 20260506132429 | 6 | 87 | 3.2 | 8.0 | 0.00 | 0.00 | 0.00 | 93 | 1019.6 |
| 20260506132029 | 6 | 87 | 3.2 | 8.0 | 0.00 | 0.00 | 0.00 | 92 | 1019.6 |
| 20260506131629 | 6 | 0 | 0.0 | 0.0 | 0.00 | 0.00 | 0.00 | 92 | 1019.6 |
| 20260506131229 | 6 | 0 | 0.0 | 0.0 | 0.00 | 0.00 | 0.00 | 92 | 1019.5 |
| 20260506130429 | 6 | 0 | 0.0 | 0.0 | 0.00 | 0.03 | 0.00 | 93 | 1019.4 |
| 20260506130029 | 6 | 0 | 0.0 | 0.0 | 0.00 | 0.03 | 0.00 | 93 | 1019.3 |
| 20260506125629 | 6 | 0 | 0.0 | 0.0 | 0.00 | 0.03 | 0.00 | 92 | 1019.2 |
| 20260506124829 | 6 | 0 | 0.0 | 0.0 | 0.00 | 0.03 | 0.00 | 92 | 1019.1 |
| 20260506124429 | 6 | 0 | 0.0 | 0.0 | 0.00 | 0.05 | 0.00 | 92 | 1019.1 |
| 20260506124029 | 7 | 0 | 0.0 | 0.0 | 0.00 | 0.05 | 0.00 | 92 | 1019.1 |
| 20260506123629 | 7 | 0 | 0.0 | 0.0 | 0.00 | 0.05 | 0.00 | 92 | 1019.1 |
| 20260506123229 | 7 | 0 | 0.0 | 0.0 | 0.00 | 0.05 | 0.00 | 92 | 1019.0 |
| 20260506122829 | 7 | 0 | 0.0 | 0.0 | 0.00 | 0.05 | 0.00 | 92 | 1019.1 |
| 20260506122429 | 7 | 0 | 0.0 | 0.0 | 0.00 | 0.05 | 0.00 | 92 | 1019.0 |
| 20260506122029 | 7 | 0 | 0.0 | 0.0 | 0.00 | 0.05 | 0.00 | 92 | 1019.0 |
| 20260506121629 | 7 | 0 | 0.0 | 0.0 | 0.00 | 0.05 | 0.00 | 92 | 1018.9 |
| 20260506121229 | 7 | 0 | 0.0 | 0.0 | 0.00 | 0.08 | 0.00 | 92 | 1018.9 |
| 20260506120429 | 7 | 0 | 0.0 | 0.0 | 0.00 | 0.08 | 0.00 | 92 | 1018.7 |
| 20260506120029 | 7 | 0 | 0.0 | 0.0 | 0.00 | 0.10 | 0.00 | 92 | 1018.8 |
| 20260506115229 | 7 | 0 | 0.0 | 0.0 | 0.00 | 0.10 | 0.00 | 92 | 1018.7 |
| 20260506114829 | 8 | 0 | 0.0 | 0.0 | 0.00 | 0.10 | 0.00 | 92 | 1018.7 |
| 20260506114429 | 8 | 0 | 0.0 | 0.0 | 0.00 | 0.10 | 0.00 | 92 | 1018.6 |
| 20260506114029 | 8 | 0 | 0.0 | 0.0 | 0.00 | 0.13 | 0.00 | 92 | 1018.6 |
| 20260506113401 | 8 | 0 | 0.0 | 0.0 | 0.00 | 0.13 | 0.00 | 92 | 1018.6 |
| 20260506113001 | 8 | 0 | 0.0 | 0.0 | 0.00 | 0.13 | 0.00 | 92 | 1018.6 |
| 20260506112601 | 8 | 0 | 0.0 | 0.0 | 0.00 | 0.13 | 0.00 | 91 | 1018.6 |
| 20260506112201 | 8 | 0 | 0.0 | 0.0 | 0.00 | 0.13 | 0.00 | 91 | 1018.6 |
| 20260506111801 | 8 | 0 | 0.0 | 0.0 | 0.00 | 0.13 | 0.00 | 91 | 1018.6 |
| 20260506111401 | 8 | 0 | 0.0 | 0.0 | 0.00 | 0.13 | 0.00 | 92 | 1018.6 |
| 20260506111001 | 8 | 0 | 0.0 | 0.0 | 0.00 | 0.13 | 0.00 | 92 | 1018.6 |
| 20260506110601 | 9 | 0 | 0.0 | 0.0 | 0.00 | 0.13 | 0.00 | 92 | 1018.6 |
| 20260506110201 | 9 | 0 | 0.0 | 0.0 | 0.00 | 0.13 | 0.00 | 92 | 1018.5 |
| 20260506105801 | 9 | 0 | 0.0 | 0.0 | 0.00 | 0.15 | 0.00 | 92 | 1018.5 |
| 20260506105401 | 9 | 0 | 0.0 | 0.0 | 0.00 | 0.15 | 0.00 | 92 | 1018.5 |
| 20260506105001 | 9 | 0 | 0.0 | 0.0 | 0.00 | 0.15 | 0.00 | 92 | 1018.5 |
| 20260506104601 | 9 | 0 | 0.0 | 0.0 | 0.00 | 0.15 | 0.00 | 92 | 1018.4 |
| 20260506104201 | 9 | 0 | 0.0 | 0.0 | 0.00 | 0.15 | 0.00 | 92 | 1018.5 |
| 20260506103801 | 9 | 0 | 0.0 | 0.0 | 0.00 | 0.15 | 0.00 | 92 | 1018.5 |
| 20260506103401 | 9 | 0 | 0.0 | 0.0 | 0.00 | 0.15 | 0.00 | 92 | 1018.4 |
| 20260506103001 | 9 | 0 | 0.0 | 0.0 | 0.00 | 0.15 | 0.00 | 92 | 1018.4 |
| 20260506102601 | 9 | 0 | 0.0 | 0.0 | 0.00 | 0.15 | 0.00 | 92 | 1018.4 |
| 20260506102201 | 9 | 0 | 0.0 | 0.0 | 0.00 | 0.15 | 0.00 | 92 | 1018.3 |
| 20260506101801 | 9 | 0 | 0.0 | 0.0 | 0.00 | 0.15 | 0.00 | 92 | 1018.4 |
| 20260506101401 | 9 | 0 | 0.0 | 0.0 | 0.00 | 0.15 | 0.00 | 92 | 1018.4 |
| 20260506101001 | 9 | 0 | 0.0 | 0.0 | 0.00 | 0.15 | 0.00 | 92 | 1018.3 |
| 20260506100601 | 9 | 0 | 0.0 | 0.0 | 0.00 | 0.15 | 0.00 | 92 | 1018.4 |
| 20260506100201 | 9 | 0 | 0.0 | 0.0 | 0.00 | 0.15 | 0.00 | 91 | 1018.4 |
| 20260506095801 | 9 | 0 | 0.0 | 0.0 | 0.00 | 0.15 | 0.00 | 91 | 1018.4 |
| 20260506095401 | 9 | 0 | 0.0 | 0.0 | 0.00 | 0.15 | 0.00 | 91 | 1018.4 |
| 20260506095001 | 9 | 0 | 0.0 | 0.0 | 0.00 | 0.15 | 0.00 | 91 | 1018.4 |
| 20260506094201 | 9 | 0 | 0.0 | 0.0 | 0.00 | 0.15 | 0.00 | 91 | 1018.2 |
| 20260506093801 | 9 | 0 | 0.0 | 0.0 | 0.00 | 0.15 | 0.00 | 91 | 1018.2 |
| 20260506093401 | 10 | 0 | 0.0 | 0.0 | 0.00 | 0.15 | 0.00 | 91 | 1018.1 |
| 20260506093001 | 10 | 0 | 0.0 | 0.0 | 0.00 | 0.15 | 0.00 | 91 | 1018.1 |
| 20260506092201 | 10 | 0 | 0.0 | 0.0 | 0.00 | 0.15 | 0.00 | 90 | 1017.8 |
| 20260506091801 | 10 | 0 | 0.0 | 0.0 | 0.00 | 0.15 | 0.00 | 90 | 1017.7 |
| 20260506091401 | 10 | 0 | 0.0 | 0.0 | 0.00 | 0.15 | 0.00 | 90 | 1017.6 |
| 20260506090601 | 10 | 0 | 0.0 | 0.0 | 0.00 | 0.15 | 0.00 | 90 | 1017.7 |
| 20260506090201 | 10 | 0 | 0.0 | 0.0 | 0.00 | 0.15 | 0.00 | 90 | 1017.7 |
| 20260506085401 | 10 | 0 | 0.0 | 0.0 | 0.00 | 0.15 | 0.00 | 90 | 1017.7 |
| 20260506085001 | 10 | 0 | 0.0 | 0.0 | 0.00 | 0.15 | 0.00 | 90 | 1017.7 |
| 20260506084601 | 10 | 0 | 0.0 | 0.0 | 0.00 | 0.15 | 0.00 | 90 | 1017.7 |
| 20260506084201 | 10 | 0 | 0.0 | 0.0 | 0.00 | 0.15 | 0.00 | 90 | 1017.7 |
| 20260506083801 | 10 | 0 | 0.0 | 0.0 | 0.00 | 0.15 | 0.00 | 90 | 1017.7 |
| 20260506083401 | 10 | 0 | 0.0 | 0.0 | 0.00 | 0.15 | 0.00 | 91 | 1017.9 |
| 20260506083001 | 10 | 0 | 0.0 | 0.0 | 0.00 | 0.15 | 0.00 | 91 | 1018.0 |
| 20260506082601 | 10 | 0 | 0.0 | 0.0 | 0.00 | 0.15 | 0.00 | 91 | 1018.2 |
| 20260506082201 | 10 | 0 | 0.0 | 0.0 | 0.00 | 0.15 | 0.00 | 91 | 1018.3 |
| 20260506081801 | 10 | 0 | 0.0 | 0.0 | 0.00 | 0.15 | 0.00 | 90 | 1018.4 |
| 20260506081401 | 10 | 0 | 0.0 | 0.0 | 0.00 | 0.15 | 0.00 | 90 | 1018.3 |
| 20260506081001 | 10 | 0 | 0.0 | 0.0 | 0.00 | 0.15 | 0.00 | 90 | 1018.3 |
| 20260506080601 | 10 | 0 | 0.0 | 0.0 | 0.00 | 0.15 | 0.00 | 90 | 1018.2 |
| 20260506080201 | 10 | 0 | 0.0 | 0.0 | 0.00 | 0.15 | 0.00 | 90 | 1018.2 |
| 20260506073401 | 11 | 0 | 0.0 | 0.0 | 0.00 | 0.15 | 0.00 | 90 | 1018.2 |
| 20260506073001 | 11 | 0 | 0.0 | 0.0 | 0.00 | 0.15 | 0.00 | 90 | 1018.0 |
| 20260506072601 | 11 | 0 | 0.0 | 0.0 | 0.00 | 0.15 | 0.00 | 90 | 1018.0 |
| 20260506072201 | 11 | 0 | 0.0 | 0.0 | 0.00 | 0.15 | 0.00 | 90 | 1018.0 |
| 20260506071801 | 11 | 0 | 0.0 | 0.0 | 0.00 | 0.15 | 0.00 | 90 | 1018.0 |
| 20260506071401 | 11 | 0 | 0.0 | 0.0 | 0.00 | 0.15 | 0.00 | 90 | 1017.9 |
| 20260506071001 | 11 | 0 | 0.0 | 0.0 | 0.00 | 0.15 | 0.00 | 89 | 1017.8 |
| 20260506070601 | 11 | 0 | 0.0 | 0.0 | 0.00 | 0.15 | 0.00 | 89 | 1017.7 |
| 20260506070201 | 11 | 0 | 0.0 | 0.0 | 0.00 | 0.15 | 0.00 | 89 | 1017.7 |
| 20260506062201 | 11 | 0 | 0.0 | 1.6 | 0.00 | 0.15 | 0.15 | 87 | 1017.2 |
| 20260506061801 | 11 | 0 | 0.0 | 0.0 | 0.00 | 0.15 | 0.15 | 87 | 1017.2 |
| 20260506061401 | 11 | 0 | 0.0 | 0.0 | 0.00 | 0.15 | 0.15 | 87 | 1017.1 |
| 20260506060909 | 11 | 0 | 0.0 | 3.2 | 0.00 | 0.15 | 0.15 | 87 | 1017.0 |
| 20260506060509 | 11 | 0 | 0.0 | 1.6 | 0.00 | 0.15 | 0.15 | 88 | 1017.1 |
| 20260506060109 | 11 | 0 | 0.0 | 3.2 | 0.00 | 0.15 | 0.15 | 88 | 1017.0 |
| 20260506051133 | 11 | 0 | 0.0 | 0.0 | 0.00 | 0.15 | 0.15 | 88 | 1017.0 |
| 20260506050732 | 11 | 0 | 0.0 | 0.0 | 0.00 | 0.15 | 0.15 | 88 | 1017.0 |
| 20260506050333 | 11 | 0 | 0.0 | 0.0 | 0.00 | 0.15 | 0.15 | 88 | 1016.9 |
| 20260506045132 | 11 | 0 | 0.0 | 0.0 | 0.00 | 0.15 | 0.15 | 87 | 1016.8 |
| 20260506044547 | 11 | 0 | 0.0 | 0.0 | 0.00 | 0.15 | 0.15 | 87 | 1016.7 |
| 20260506044147 | 11 | 0 | 0.0 | 0.0 | 0.00 | 0.15 | 0.15 | 87 | 1016.7 |
| 20260506043747 | 11 | 0 | 0.0 | 0.0 | 0.00 | 0.15 | 0.15 | 87 | 1016.6 |
| 20260506043347 | 11 | 0 | 0.0 | 0.0 | 0.00 | 0.15 | 0.15 | 87 | 1016.6 |
| 20260506042947 | 11 | 0 | 0.0 | 0.0 | 0.00 | 0.15 | 0.15 | 87 | 1016.5 |
| 20260506042547 | 11 | 0 | 0.0 | 0.0 | 0.00 | 0.15 | 0.15 | 87 | 1016.5 |
| 20260506041747 | 12 | 0 | 0.0 | 0.0 | 0.00 | 0.15 | 0.15 | 87 | 1016.5 |
| 20260506040947 | 12 | 0 | 0.0 | 0.0 | 0.00 | 0.15 | 0.15 | 87 | 1016.3 |
| 20260506040547 | 12 | 0 | 0.0 | 0.0 | 0.00 | 0.15 | 0.15 | 86 | 1016.3 |
| 20260506035429 | 12 | 0 | 0.0 | 0.0 | 0.00 | 0.15 | 0.15 | 85 | 1016.1 |
| 20260506035030 | 12 | 0 | 0.0 | 0.0 | 0.00 | 0.15 | 0.15 | 85 | 1015.9 |
| 20260506034629 | 12 | 0 | 0.0 | 0.0 | 0.00 | 0.15 | 0.15 | 85 | 1015.9 |
| 20260506033830 | 12 | 0 | 0.0 | 0.0 | 0.00 | 0.15 | 0.15 | 85 | 1015.8 |
| 20260506033429 | 12 | 0 | 0.0 | 0.0 | 0.00 | 0.15 | 0.15 | 84 | 1015.7 |
| 20260506033030 | 12 | 0 | 0.0 | 0.0 | 0.00 | 0.15 | 0.15 | 84 | 1015.7 |
| 20260506032629 | 12 | 0 | 0.0 | 0.0 | 0.00 | 0.15 | 0.15 | 83 | 1015.6 |
| 20260506032229 | 12 | 0 | 0.0 | 0.0 | 0.00 | 0.15 | 0.15 | 83 | 1015.5 |
| 20260506031830 | 12 | 0 | 0.0 | 0.0 | 0.00 | 0.15 | 0.15 | 83 | 1015.5 |
| 20260506031430 | 12 | 0 | 0.0 | 0.0 | 0.00 | 0.15 | 0.15 | 83 | 1015.5 |
| 20260506031029 | 12 | 0 | 0.0 | 0.0 | 0.00 | 0.15 | 0.15 | 83 | 1015.4 |
| 20260506024629 | 12 | 0 | 0.0 | 0.0 | 0.00 | 0.15 | 0.15 | 81 | 1015.2 |
| 20260506023430 | 12 | 0 | 0.0 | 0.0 | 0.00 | 0.15 | 0.15 | 80 | 1015.2 |
| 20260506015429 | 12 | 0 | 0.0 | 1.6 | 0.00 | 0.15 | 0.15 | 78 | 1015.0 |
| 20260506015029 | 13 | 0 | 0.0 | 1.6 | 0.00 | 0.15 | 0.15 | 79 | 1015.0 |
| 20260506014629 | 12 | 0 | 0.0 | 0.0 | 0.00 | 0.15 | 0.15 | 79 | 1015.1 |
| 20260506013954 | 12 | 0 | 0.0 | 4.8 | 0.00 | 0.15 | 0.15 | 79 | 1015.0 |
| 20260506013554 | 12 | 51 | 1.6 | 6.4 | 0.00 | 0.15 | 0.15 | 79 | 1015.0 |
| 20260506013154 | 12 | 51 | 3.2 | 6.4 | 0.00 | 0.15 | 0.15 | 79 | 1015.1 |
| 20260506012754 | 12 | 51 | 1.6 | 4.8 | 0.00 | 0.15 | 0.15 | 78 | 1015.1 |
| 20260506012354 | 13 | 51 | 1.6 | 4.8 | 0.00 | 0.15 | 0.15 | 79 | 1015.0 |
| 20260506011955 | 12 | 0 | 0.0 | 6.4 | 0.00 | 0.15 | 0.15 | 79 | 1015.1 |
| 20260506011154 | 12 | 50 | 4.8 | 9.7 | 0.00 | 0.15 | 0.15 | 79 | 1015.2 |
| 20260506010754 | 12 | 0 | 0.0 | 8.0 | 0.00 | 0.15 | 0.15 | 80 | 1015.2 |
| 20260506010354 | 12 | 48 | 1.6 | 9.7 | 0.00 | 0.15 | 0.15 | 81 | 1015.1 |
| 20260506005954 | 12 | 48 | 4.8 | 12.9 | 0.00 | 0.15 | 0.15 | 80 | 1015.2 |
| 20260506005554 | 12 | 44 | 6.4 | 12.9 | 0.00 | 0.15 | 0.15 | 80 | 1015.3 |
| 20260506005154 | 12 | 20 | 8.0 | 12.9 | 0.00 | 0.15 | 0.15 | 80 | 1015.3 |
| 20260506004754 | 12 | 256 | 4.8 | 11.3 | 0.00 | 0.15 | 0.15 | 80 | 1015.3 |
| 20260506004354 | 12 | 253 | 3.2 | 8.0 | 0.00 | 0.15 | 0.15 | 81 | 1015.3 |
| 20260506003954 | 12 | 253 | 3.2 | 6.4 | 0.00 | 0.15 | 0.15 | 80 | 1015.3 |
| 20260506003554 | 12 | 253 | 3.2 | 6.4 | 0.00 | 0.15 | 0.15 | 80 | 1015.3 |
| 20260506003022 | 12 | 253 | 4.8 | 12.9 | 0.00 | 0.15 | 0.15 | 79 | 1015.4 |
| 20260506002623 | 12 | 251 | 6.4 | 11.3 | 0.00 | 0.15 | 0.15 | 80 | 1015.3 |
| 20260506001822 | 12 | 249 | 4.8 | 11.3 | 0.00 | 0.15 | 0.15 | 80 | 1015.3 |
| 20260506001422 | 12 | 248 | 4.8 | 8.0 | 0.00 | 0.15 | 0.15 | 79 | 1015.3 |
| 20260506000622 | 12 | 248 | 4.8 | 12.9 | 0.00 | 0.15 | 0.15 | 79 | 1015.4 |
| 20260506000222 | 12 | 246 | 3.2 | 11.3 | 0.00 | 0.15 | 0.15 | 78 | 1015.3 |
| 20260505235823 | 13 | 246 | 4.8 | 11.3 | 0.00 | 0.15 | 0.15 | 78 | 1015.3 |
| 20260505235422 | 13 | 246 | 3.2 | 11.3 | 0.00 | 0.15 | 0.15 | 78 | 1015.1 |
| 20260505235022 | 13 | 246 | 1.6 | 8.0 | 0.00 | 0.15 | 0.15 | 78 | 1015.1 |
| 20260505234622 | 13 | 246 | 3.2 | 8.0 | 0.00 | 0.15 | 0.15 | 77 | 1015.1 |
| 20260505234222 | 13 | 246 | 3.2 | 8.0 | 0.00 | 0.15 | 0.15 | 77 | 1015.1 |
| 20260505233822 | 13 | 246 | 3.2 | 8.0 | 0.00 | 0.15 | 0.15 | 77 | 1015.2 |
| 20260505233422 | 13 | 0 | 0.0 | 11.3 | 0.00 | 0.15 | 0.15 | 76 | 1015.1 |
| 20260505233022 | 13 | 246 | 3.2 | 11.3 | 0.00 | 0.15 | 0.15 | 75 | 1015.1 |
| 20260505232622 | 13 | 246 | 4.8 | 11.3 | 0.00 | 0.15 | 0.15 | 76 | 1015.2 |
| 20260505232222 | 13 | 246 | 3.2 | 6.4 | 0.00 | 0.15 | 0.15 | 77 | 1015.1 |
| 20260505231822 | 13 | 246 | 1.6 | 6.4 | 0.00 | 0.15 | 0.15 | 75 | 1015.0 |
| 20260505231422 | 13 | 246 | 3.2 | 6.4 | 0.00 | 0.15 | 0.15 | 75 | 1015.0 |
| 20260505231022 | 13 | 0 | 0.0 | 4.8 | 0.00 | 0.15 | 0.15 | 75 | 1015.0 |
| 20260505230622 | 13 | 0 | 0.0 | 4.8 | 0.00 | 0.15 | 0.15 | 75 | 1015.0 |
| 20260505230222 | 13 | 246 | 1.6 | 4.8 | 0.00 | 0.15 | 0.15 | 75 | 1015.0 |
| 20260505225823 | 13 | 0 | 0.0 | 3.2 | 0.00 | 0.15 | 0.15 | 75 | 1015.0 |
| 20260505225422 | 13 | 0 | 0.0 | 3.2 | 0.00 | 0.15 | 0.15 | 74 | 1015.0 |
| 20260505224916 | 13 | 0 | 0.0 | 6.4 | 0.00 | 0.15 | 0.15 | 73 | 1015.0 |
| 20260505224516 | 13 | 246 | 1.6 | 6.4 | 0.00 | 0.15 | 0.15 | 73 | 1015.0 |
| 20260505224116 | 13 | 246 | 3.2 | 6.4 | 0.00 | 0.15 | 0.15 | 75 | 1015.0 |
| 20260505223716 | 13 | 0 | 0.0 | 0.0 | 0.00 | 0.15 | 0.15 | 75 | 1015.0 |
| 20260505223316 | 13 | 0 | 0.0 | 0.0 | 0.00 | 0.15 | 0.15 | 75 | 1015.0 |
| 20260505222916 | 13 | 0 | 0.0 | 0.0 | 0.00 | 0.15 | 0.15 | 75 | 1015.1 |
| 20260505222328 | 13 | 0 | 0.0 | 8.0 | 0.00 | 0.15 | 0.15 | 73 | 1015.1 |
| 20260505221928 | 13 | 246 | 3.2 | 8.0 | 0.00 | 0.15 | 0.15 | 74 | 1015.2 |
| 20260505221528 | 13 | 246 | 1.6 | 8.0 | 0.00 | 0.15 | 0.15 | 76 | 1015.1 |
| 20260505220800 | 13 | 246 | 1.6 | 8.0 | 0.00 | 0.15 | 0.15 | 75 | 1015.1 |
| 20260505220000 | 13 | 246 | 4.8 | 8.0 | 0.00 | 0.15 | 0.15 | 75 | 1015.2 |
| 20260505215600 | 13 | 246 | 3.2 | 8.0 | 0.00 | 0.15 | 0.15 | 75 | 1015.2 |
| 20260505214800 | 13 | 246 | 1.6 | 4.8 | 0.00 | 0.15 | 0.15 | 77 | 1015.0 |
| 20260505213433 | 13 | 246 | 1.6 | 4.8 | 0.00 | 0.15 | 0.15 | 77 | 1015.1 |
| 20260505212232 | 13 | 0 | 0.0 | 4.8 | 0.00 | 0.15 | 0.15 | 80 | 1015.1 |
| 20260505211432 | 12 | 246 | 1.6 | 6.4 | 0.00 | 0.15 | 0.15 | 79 | 1015.3 |
| 20260505211033 | 12 | 245 | 1.6 | 8.0 | 0.00 | 0.15 | 0.15 | 78 | 1015.2 |
| 20260505210632 | 12 | 245 | 3.2 | 8.0 | 0.00 | 0.15 | 0.15 | 78 | 1015.1 |
| 20260505210233 | 13 | 245 | 3.2 | 8.0 | 0.00 | 0.15 | 0.15 | 77 | 1015.1 |
| 20260505205832 | 13 | 0 | 0.0 | 3.2 | 0.00 | 0.15 | 0.15 | 79 | 1015.0 |
| 20260505205433 | 12 | 0 | 0.0 | 3.2 | 0.00 | 0.15 | 0.15 | 78 | 1014.9 |
| 20260505204632 | 12 | 0 | 0.0 | 12.9 | 0.00 | 0.15 | 0.15 | 76 | 1014.8 |
| 20260505204233 | 12 | 240 | 6.4 | 12.9 | 0.00 | 0.15 | 0.15 | 76 | 1014.8 |
| 20260505203833 | 13 | 234 | 8.0 | 12.9 | 0.00 | 0.15 | 0.15 | 77 | 1014.8 |
| 20260505203433 | 13 | 252 | 8.0 | 12.9 | 0.00 | 0.15 | 0.15 | 77 | 1014.8 |
| 20260505203033 | 13 | 261 | 4.8 | 9.7 | 0.00 | 0.15 | 0.15 | 78 | 1014.9 |
| 20260505202633 | 13 | 261 | 3.2 | 9.7 | 0.00 | 0.15 | 0.15 | 78 | 1014.9 |
| 20260505202233 | 13 | 261 | 4.8 | 9.7 | 0.00 | 0.15 | 0.15 | 78 | 1014.9 |
| 20260505201832 | 13 | 261 | 3.2 | 9.7 | 0.00 | 0.15 | 0.15 | 78 | 1014.9 |
| 20260505201432 | 13 | 261 | 3.2 | 12.9 | 0.00 | 0.15 | 0.15 | 78 | 1014.9 |
| 20260505201032 | 13 | 262 | 1.6 | 12.9 | 0.00 | 0.15 | 0.15 | 78 | 1015.0 |
| 20260505200633 | 13 | 0 | 0.0 | 12.9 | 0.00 | 0.15 | 0.15 | 80 | 1014.9 |
| 20260505200233 | 13 | 0 | 0.0 | 12.9 | 0.00 | 0.15 | 0.15 | 79 | 1014.9 |
| 20260505195833 | 13 | 260 | 4.8 | 12.9 | 0.00 | 0.15 | 0.15 | 79 | 1015.0 |
| 20260505195433 | 13 | 260 | 1.6 | 12.9 | 0.00 | 0.15 | 0.15 | 79 | 1015.0 |
| 20260505195032 | 13 | 260 | 1.6 | 14.5 | 0.00 | 0.18 | 0.15 | 78 | 1015.0 |
| 20260505194632 | 13 | 260 | 6.4 | 14.5 | 0.00 | 0.18 | 0.15 | 77 | 1015.0 |
| 20260505194233 | 13 | 261 | 6.4 | 14.5 | 0.00 | 0.18 | 0.15 | 77 | 1015.1 |
| 20260505193432 | 13 | 0 | 0.0 | 12.9 | 0.00 | 0.20 | 0.15 | 78 | 1015.0 |
| 20260505193032 | 13 | 259 | 4.8 | 12.9 | 0.00 | 0.20 | 0.15 | 76 | 1015.0 |
| 20260505192632 | 13 | 259 | 3.2 | 11.3 | 0.00 | 0.20 | 0.15 | 78 | 1014.9 |
| 20260505192232 | 13 | 0 | 0.0 | 14.5 | 0.00 | 0.20 | 0.15 | 79 | 1014.8 |
| 20260505191832 | 13 | 260 | 1.6 | 14.5 | 0.00 | 0.20 | 0.15 | 77 | 1014.8 |
| 20260505191432 | 13 | 257 | 6.4 | 14.5 | 0.00 | 0.20 | 0.15 | 76 | 1014.8 |
| 20260505191032 | 13 | 0 | 0.0 | 8.0 | 0.00 | 0.23 | 0.15 | 78 | 1014.8 |
| 20260505190632 | 13 | 0 | 0.0 | 8.0 | 0.00 | 0.23 | 0.15 | 78 | 1014.8 |
| 20260505190232 | 13 | 255 | 3.2 | 12.9 | 0.00 | 0.23 | 0.15 | 78 | 1014.9 |
| 20260505185832 | 13 | 255 | 3.2 | 14.5 | 0.00 | 0.23 | 0.15 | 79 | 1014.9 |
| 20260505185432 | 13 | 254 | 4.8 | 14.5 | 0.00 | 0.23 | 0.15 | 79 | 1014.8 |
| 20260505184932 | 13 | 250 | 1.6 | 11.3 | 0.00 | 0.23 | 0.15 | 79 | 1014.8 |
| 20260505184532 | 13 | 248 | 1.6 | 11.3 | 0.00 | 0.23 | 0.15 | 79 | 1014.8 |
| 20260505184132 | 13 | 248 | 3.2 | 11.3 | 0.00 | 0.23 | 0.15 | 81 | 1014.9 |
| 20260505183732 | 13 | 0 | 0.0 | 6.4 | 0.00 | 0.23 | 0.15 | 81 | 1014.8 |
| 20260505183332 | 13 | 248 | 1.6 | 12.9 | 0.00 | 0.23 | 0.15 | 82 | 1014.9 |
| 20260505182932 | 13 | 248 | 3.2 | 14.5 | 0.00 | 0.23 | 0.15 | 81 | 1014.8 |
| 20260505182533 | 13 | 245 | 4.8 | 14.5 | 0.00 | 0.23 | 0.15 | 80 | 1014.8 |
| 20260505182132 | 13 | 244 | 6.4 | 14.5 | 0.00 | 0.23 | 0.15 | 80 | 1014.8 |
| 20260505181732 | 13 | 216 | 4.8 | 12.9 | 0.00 | 0.23 | 0.15 | 81 | 1014.9 |
| 20260505181332 | 13 | 0 | 0.0 | 17.7 | 0.00 | 0.23 | 0.15 | 82 | 1014.9 |
| 20260505180932 | 13 | 245 | 6.4 | 17.7 | 0.00 | 0.25 | 0.15 | 82 | 1014.8 |
| 20260505180132 | 13 | 271 | 4.8 | 16.1 | 0.00 | 0.25 | 0.15 | 83 | 1014.6 |
| 20260505175732 | 13 | 260 | 9.7 | 16.1 | 0.00 | 0.25 | 0.15 | 84 | 1014.6 |
| 20260505175332 | 13 | 255 | 4.8 | 16.1 | 0.00 | 0.25 | 0.15 | 86 | 1014.6 |
| 20260505174932 | 13 | 253 | 4.8 | 12.9 | 0.00 | 0.25 | 0.15 | 86 | 1014.6 |
| 20260505174132 | 12 | 254 | 6.4 | 12.9 | 0.00 | 0.25 | 0.15 | 87 | 1014.5 |
| 20260505173732 | 12 | 254 | 3.2 | 12.9 | 0.00 | 0.25 | 0.15 | 86 | 1014.4 |
| 20260505173332 | 12 | 252 | 4.8 | 12.9 | 0.00 | 0.25 | 0.15 | 86 | 1014.3 |
| 20260505172932 | 12 | 247 | 6.4 | 12.9 | 0.00 | 0.25 | 0.15 | 87 | 1014.3 |
| 20260505172532 | 12 | 246 | 6.4 | 14.5 | 0.00 | 0.25 | 0.15 | 87 | 1014.2 |
| 20260505172132 | 12 | 263 | 6.4 | 14.5 | 0.00 | 0.25 | 0.15 | 87 | 1014.2 |
| 20260505171732 | 12 | 260 | 8.0 | 14.5 | 0.00 | 0.25 | 0.15 | 87 | 1014.1 |
| 20260505171332 | 12 | 252 | 4.8 | 16.1 | 0.00 | 0.25 | 0.15 | 87 | 1014.0 |
| 20260505170532 | 12 | 239 | 9.7 | 16.1 | 0.00 | 0.25 | 0.15 | 88 | 1013.8 |
| 20260505170132 | 12 | 242 | 11.3 | 16.1 | 0.00 | 0.25 | 0.15 | 88 | 1013.9 |
| 20260505165732 | 12 | 250 | 3.2 | 6.4 | 0.00 | 0.25 | 0.15 | 88 | 1013.8 |
| 20260505165332 | 12 | 0 | 0.0 | 6.4 | 0.00 | 0.25 | 0.15 | 88 | 1013.9 |
| 20260505164532 | 12 | 250 | 3.2 | 8.0 | 0.00 | 0.25 | 0.15 | 90 | 1013.8 |
| 20260505164132 | 12 | 250 | 1.6 | 8.0 | 0.00 | 0.25 | 0.15 | 90 | 1013.8 |
| 20260505163732 | 12 | 250 | 4.8 | 8.0 | 0.00 | 0.25 | 0.15 | 92 | 1013.9 |
| 20260505163332 | 12 | 0 | 0.0 | 8.0 | 0.00 | 0.25 | 0.15 | 92 | 1013.9 |
| 20260505162932 | 11 | 250 | 1.6 | 8.0 | 0.00 | 0.25 | 0.15 | 92 | 1013.9 |
| 20260505162532 | 11 | 250 | 3.2 | 8.0 | 0.00 | 0.25 | 0.15 | 93 | 1013.9 |
| 20260505162132 | 11 | 250 | 3.2 | 8.0 | 0.00 | 0.25 | 0.15 | 93 | 1013.9 |
| 20260505161732 | 11 | 250 | 1.6 | 4.8 | 0.00 | 0.25 | 0.15 | 93 | 1013.9 |
| 20260505161332 | 11 | 250 | 3.2 | 4.8 | 0.00 | 0.25 | 0.15 | 94 | 1013.8 |
| 20260505160932 | 10 | 0 | 0.0 | 4.8 | 0.00 | 0.25 | 0.15 | 93 | 1013.7 |
| 20260505160532 | 10 | 250 | 1.6 | 4.8 | 0.00 | 0.25 | 0.15 | 93 | 1013.7 |